When you browse on this site, cookies collect data to enhance your experience and personalize the content and advertising you see.
Visit our Privacy Policy to learn more. By continuing to use the site, you agree to this use of cookies and data.

Hourly Weather Phnom Penh

Today, 4 August, Tuesday

Time Temperature Precipitation Wind Pressure Humidity
00:00 +28°C° 0.1 mm 2 mps 753 mmHg 88%
01:00 +28°C° 0 mm 2 mps 753 mmHg 89%
02:00 +28°C° 0.3 mm 2 mps 752 mmHg 88%
03:00 +28°C° 0.3 mm 2 mps 752 mmHg 88%
04:00 +28°C° 0.3 mm 2 mps 752 mmHg 88%
05:00 +28°C° 0 mm 3 mps 752 mmHg 87%
06:00 +28°C° 0 mm 3 mps 753 mmHg 87%
07:00 +28°C° 0 mm 4 mps 753 mmHg 89%
08:00 +29°C° 0 mm 4 mps 753 mmHg 83%
09:00 +30°C° 0 mm 5 mps 753 mmHg 77%
10:00 +32°C° 0 mm 6 mps 753 mmHg 72%
11:00 +32°C° 0 mm 6 mps 753 mmHg 71%
12:00 +33°C° 0 mm 7 mps 753 mmHg 70%
13:00 +33°C° 0 mm 5 mps 753 mmHg 67%
14:00 +33°C° 0.3 mm 5 mps 752 mmHg 68%
15:00 +32°C° 0.3 mm 6 mps 752 mmHg 70%
16:00 +30°C° 0.3 mm 6 mps 751 mmHg 72%
17:00 +29°C° 0 mm 5 mps 751 mmHg 74%
18:00 +28°C° 0 mm 4 mps 752 mmHg 77%
19:00 +27°C° 0 mm 3 mps 752 mmHg 80%
20:00 +27°C° 0 mm 3 mps 753 mmHg 80%
21:00 +27°C° 0 mm 3 mps 753 mmHg 81%
22:00 +27°C° 0 mm 3 mps 754 mmHg 82%
23:00 +27°C° 0 mm 3 mps 753 mmHg 82%

Tomorrow, 5 August, Wednesday

Time Temperature Precipitation Wind Pressure Humidity
00:00 +27°C° 0 mm 3 mps 753 mmHg 82%
01:00 +27°C° 0 mm 3 mps 753 mmHg 82%
02:00 +27°C° 0 mm 3 mps 753 mmHg 83%
03:00 +27°C° 0 mm 3 mps 753 mmHg 83%
04:00 +27°C° 0 mm 2 mps 753 mmHg 84%
05:00 +27°C° 0 mm 2 mps 753 mmHg 84%
06:00 +28°C° 0 mm 2 mps 753 mmHg 84%
07:00 +28°C° 0 mm 2 mps 754 mmHg 83%
08:00 +29°C° 0 mm 3 mps 754 mmHg 79%
09:00 +30°C° 0 mm 4 mps 754 mmHg 75%
10:00 +32°C° 0 mm 5 mps 754 mmHg 71%
11:00 +32°C° 0 mm 5 mps 754 mmHg 70%
12:00 +33°C° 0 mm 5 mps 754 mmHg 68%
13:00 +33°C° 0 mm 5 mps 753 mmHg 67%
14:00 +33°C° 0.2 mm 5 mps 753 mmHg 66%
15:00 +33°C° 0.2 mm 4 mps 752 mmHg 66%
16:00 +33°C° 0.2 mm 4 mps 752 mmHg 66%
17:00 +31°C° 0.5 mm 3 mps 752 mmHg 70%
18:00 +30°C° 0.5 mm 2 mps 753 mmHg 74%
19:00 +29°C° 0.5 mm 1 mps 753 mmHg 79%
20:00 +29°C° 0 mm 1 mps 754 mmHg 80%
21:00 +29°C° 0 mm 1 mps 754 mmHg 81%
22:00 +27°C° 0 mm 0 mps 755 mmHg 81%
23:00 +28°C° 0 mm 1 mps 755 mmHg 82%

Day after tomorrow, 6 August, Thursday

Time Temperature Precipitation Wind Pressure Humidity
00:00 +28°C° 0 mm 1 mps 755 mmHg 83%
01:00 +28°C° 0 mm 1 mps 754 mmHg 84%
02:00 +27°C° 0.2 mm 1 mps 754 mmHg 85%
03:00 +27°C° 0.2 mm 1 mps 754 mmHg 87%
04:00 +27°C° 0.2 mm 1 mps 754 mmHg 88%
05:00 +27°C° 0.5 mm 2 mps 754 mmHg 89%
06:00 +27°C° 0.5 mm 2 mps 754 mmHg 90%
07:00 +27°C° 0.5 mm 2 mps 755 mmHg 91%
08:00 +27°C° 1.7 mm 2 mps 755 mmHg 91%
09:00 +27°C° 1.7 mm 2 mps 755 mmHg 92%
10:00 +26°C° 1.7 mm 2 mps 756 mmHg 93%
11:00 +27°C° 1.6 mm 2 mps 755 mmHg 93%
12:00 +27°C° 1.6 mm 2 mps 755 mmHg 92%
13:00 +27°C° 1.6 mm 2 mps 755 mmHg 92%
14:00 +27°C° 1.3 mm 3 mps 754 mmHg 92%
15:00 +27°C° 1.3 mm 3 mps 754 mmHg 91%
16:00 +26°C° 1.3 mm 4 mps 753 mmHg 91%
17:00 +26°C° 3.7 mm 4 mps 754 mmHg 93%
18:00 +26°C° 3.7 mm 3 mps 754 mmHg 94%
19:00 +26°C° 3.7 mm 3 mps 754 mmHg 95%
20:00 +25°C° 2.3 mm 4 mps 755 mmHg 94%
21:00 +25°C° 2.3 mm 4 mps 755 mmHg 94%
22:00 +25°C° 2.3 mm 5 mps 756 mmHg 93%
23:00 +25°C° 0.7 mm 4 mps 755 mmHg 92%

7 August, Friday

Time Temperature Precipitation Wind Pressure Humidity
00:00 +25°C° 0.7 mm 4 mps 755 mmHg 92%
01:00 +25°C° 0.7 mm 4 mps 755 mmHg 91%
02:00 +25°C° 0.5 mm 4 mps 754 mmHg 91%
03:00 +25°C° 0.5 mm 4 mps 754 mmHg 92%
04:00 +25°C° 0.5 mm 3 mps 754 mmHg 92%
05:00 +25°C° 0.4 mm 3 mps 754 mmHg 92%
06:00 +25°C° 0.4 mm 2 mps 754 mmHg 92%
07:00 +25°C° 0.4 mm 2 mps 755 mmHg 93%
08:00 +26°C° 0.2 mm 3 mps 755 mmHg 89%
09:00 +27°C° 0.2 mm 4 mps 755 mmHg 86%
10:00 +28°C° 0.2 mm 4 mps 756 mmHg 83%
11:00 +28°C° 0.2 mm 4 mps 755 mmHg 83%
12:00 +28°C° 0.2 mm 4 mps 755 mmHg 83%
13:00 +28°C° 0.2 mm 4 mps 754 mmHg 84%
14:00 +27°C° 0 mm 4 mps 754 mmHg 84%
15:00 +27°C° 0 mm 4 mps 753 mmHg 84%
16:00 +27°C° 0 mm 4 mps 753 mmHg 84%
17:00 +27°C° 0 mm 3 mps 753 mmHg 85%
18:00 +27°C° 0 mm 3 mps 753 mmHg 85%
19:00 +26°C° 0 mm 3 mps 753 mmHg 86%
20:00 +26°C° 0 mm 3 mps 754 mmHg 86%
21:00 +26°C° 0 mm 3 mps 754 mmHg 85%
22:00 +26°C° 0 mm 3 mps 755 mmHg 85%
23:00 +26°C° 0 mm 2 mps 755 mmHg 86%

8 August, Saturday

Time Temperature Precipitation Wind Pressure Humidity
00:00 +26°C° 0 mm 2 mps 754 mmHg 86%
01:00 +26°C° 0 mm 2 mps 754 mmHg 87%
02:00 +26°C° 0 mm 2 mps 754 mmHg 87%
03:00 +26°C° 0 mm 2 mps 753 mmHg 87%
04:00 +26°C° 0 mm 2 mps 753 mmHg 87%
05:00 +26°C° 0 mm 2 mps 754 mmHg 88%
06:00 +26°C° 0 mm 2 mps 754 mmHg 88%
07:00 +26°C° 0 mm 2 mps 754 mmHg 88%
08:00 +27°C° 0 mm 2 mps 754 mmHg 84%
09:00 +29°C° 0 mm 2 mps 754 mmHg 80%
10:00 +30°C° 0 mm 2 mps 755 mmHg 76%
11:00 +30°C° 0 mm 3 mps 754 mmHg 76%
12:00 +30°C° 0 mm 3 mps 753 mmHg 77%
13:00 +30°C° 0 mm 3 mps 753 mmHg 77%
14:00 +30°C° 0 mm 3 mps 752 mmHg 78%
15:00 +29°C° 0 mm 3 mps 752 mmHg 80%
16:00 +29°C° 0 mm 3 mps 751 mmHg 81%
17:00 +29°C° 0 mm 3 mps 751 mmHg 80%
18:00 +29°C° 0 mm 3 mps 752 mmHg 80%
19:00 +29°C° 0 mm 3 mps 752 mmHg 80%
20:00 +29°C° 0 mm 3 mps 753 mmHg 81%
21:00 +28°C° 0 mm 3 mps 753 mmHg 82%
22:00 +28°C° 0 mm 3 mps 754 mmHg 83%
23:00 +28°C° 0 mm 3 mps 754 mmHg 84%

9 August, Sunday

Time Temperature Precipitation Wind Pressure Humidity
00:00 +28°C° 0 mm 3 mps 753 mmHg 85%
01:00 +28°C° 0 mm 3 mps 753 mmHg 86%
02:00 +27°C° 0.1 mm 2 mps 753 mmHg 87%
03:00 +27°C° 0.1 mm 2 mps 753 mmHg 88%
04:00 +27°C° 0.1 mm 2 mps 752 mmHg 89%
05:00 +27°C° 0 mm 2 mps 753 mmHg 89%
06:00 +27°C° 0 mm 2 mps 753 mmHg 88%
07:00 +28°C° 0 mm 2 mps 754 mmHg 88%
08:00 +28°C° 0 mm 2 mps 754 mmHg 83%
09:00 +29°C° 0 mm 2 mps 754 mmHg 79%
10:00 +30°C° 0 mm 2 mps 754 mmHg 75%
11:00 +31°C° 0 mm 2 mps 754 mmHg 73%
12:00 +31°C° 0 mm 2 mps 753 mmHg 71%
13:00 +31°C° 0 mm 3 mps 753 mmHg 70%
14:00 +31°C° 0 mm 3 mps 753 mmHg 68%
15:00 +33°C° 0 mm 4 mps 752 mmHg 66%
16:00 +33°C° 0 mm 4 mps 752 mmHg 65%
17:00 +31°C° 0 mm 3 mps 752 mmHg 69%
18:00 +30°C° 0 mm 3 mps 752 mmHg 73%
19:00 +29°C° 0 mm 3 mps 753 mmHg 77%
20:00 +29°C° 0 mm 2 mps 753 mmHg 78%
21:00 +29°C° 0 mm 2 mps 754 mmHg 79%
22:00 +29°C° 0 mm 2 mps 754 mmHg 80%
23:00 +28°C° 0 mm 2 mps 754 mmHg 82%
Show more